Regional Weather Roundup
Issued by NWS Jackson, KY

Home | Current Version | Previous Version | Text Only | Print | Product List | Glossary Off
Versions: 1 2 3 4 5 6 7 8 9 10 11 12 13 14 15 16 17 18 19 20 21 22 23 24 25 26 27 28 29 30 31 32 33 34 35 36 37 38 39 40 41 42 43 44 45 46 47 48 49 50

157
ASUS43 KJKL 131910
RWRJKL

EAST KENTUCKY HOURLY WEATHER ROUNDUP
NATIONAL WEATHER SERVICE JACKSON KY
200 PM EST SAT FEB 13 2016

NOTE: "FAIR" INDICATES FEW OR NO CLOUDS BELOW 12,000 FEET WITH
NO SIGNIFICANT WEATHER AND/OR OBSTRUCTIONS TO VISIBILITY.

* THESE REPORTS ARE NOT UNDER NWS QUALITY CONTROL AND MAY NOT
  REPORT WEATHER SUCH AS PRECIPITATION AND FOG.

KYZ079-080-083-085-087-088-110-112-115-119-120-132000
...EASTERN KENTUCKY...

CITY           SKY/WX    TMP DP  RH WIND       PRES   REMARKS
JACKSON        MOSUNNY   21   4  47 MISG      30.42F
LONDON         SUNNY     23   5  46 N12       30.44F WCI  12
SOMERSET*      SUNNY     23   5  46 NW9       30.49F WCI  13
MONTICELLO*    SUNNY     26   8  46 N12G20    30.49F WCI  16
WILLIAMSBURG*  CLEAR     27   7  43 NW7       30.44F WCI  19
MIDDLESBORO*   SUNNY     26   5  41 NW14G22   30.42F WCI  14
HARLAN APT*      N/A     25   1  36 W10       30.38F WCI  15
HAZARD APT*    CLEAR      1 -17  42 N5        30.42F WCI  -8
BLACK MTN*       N/A     12   5  73 N3          N/A
BIG SANDY*     PTCLDY    22   3  45 NW8       30.43F WCI  12
MOREHEAD APT*  MOCLDY    19   1  45 N12G18    30.50F WCI   7
$$

KYZ035-036-041-042-044-050-067-078-099-132000
...CENTRAL KENTUCKY...

CITY           SKY/WX    TMP DP  RH WIND       PRES   REMARKS
MT STERLING*   PTSUNNY   21   3  45 NW5       30.50F WCI  15
DANVILLE*      SUNNY     23   5  46 N9        30.50F WCI  13
RICHMOND*      MOSUNNY   21   1  42 N10G16    30.48S WCI  10
LEXINGTON      MOSUNNY   22   3  44 N13       30.49F WCI  10
FRANKFORT      SUNNY     22  -3  33 N8        30.50F WCI  12
$$

KYZ091>093-OHZ055-061-077-WVZ005-015-034-035-042-132000
...SOUTHERN OHIO/WEST VIRGINIA...

CITY           SKY/WX    TMP DP  RH WIND       PRES   REMARKS
COVINGTON      MOSUNNY   18   2  49 VRB6      30.51F WCI  10
COLUMBUS       CLOUDY    14  -5  42 NW13      30.47F WCI   0
DAYTON         PTSUNNY   14   2  58 NW13      30.49F WCI   0
WILMINGTON     MOSUNNY   13  -2  51 NW10      30.48F WCI   0
HUNTINGTON     PTSUNNY   20  -3  36 NW10G18   30.46F WCI   9
CHARLESTON       N/A     19  -4  36 W13G24    30.43F WCI   6
PINEVILLE*       N/A     17   1  48 MISG      30.39S
BECKLEY        CLOUDY    12  -1  56 NW17      30.25F WCI  -5
$$

VAZ002-007-008-TNZ017-027-036-066-071-132000
...SOUTHWEST VIRGINIA/EAST TENNESSEE...

CITY           SKY/WX    TMP DP  RH WIND       PRES   REMARKS
BRISTOL        MOSUNNY   25   7  46 VRB6      30.35F WCI  18
KNOXVILLE      MOSUNNY   30   9  41 NE9       30.41F WCI  22
OAK RIDGE      SUNNY     32   5  32 VRB5      30.43F WCI  27
CROSSVILLE     SUNNY     26   3  37 NW8       30.38F WCI  18
NASHVILLE      MOSUNNY   30   1  29 N5        30.52F WCI  25
$$

...KEY TO REMARKS...
VSB - VISIBILITY IN MILES
WCI - WIND CHILL INDEX
HX  - HEAT INDEX

$$




USA.gov is the U.S. government's official web portal to all federal, state and local government web resources and services.